sat.trackr.live / text

‹ back to catalog

STARLINK-35500

NORAD 66093 · 2025-236H

PAYLOAD ACTIVE UNKNOWN

§ Identity

Operator
Country
US
Launch date
2025-10-19
Launch site
AFWTR
Launch vehicle
Mass (kg)
RCS (m²)

Purposes: comms

External: N2YO · Heavens-Above · Gunter

§ Orbital elements

Epoch: 2026-05-25T03:50:43.257696Z

Period
94.11 min
Inclination
53.1603°
Eccentricity
0.0001069
Mean motion
15.30204779 rev/d
Perigee alt
474.5 km
Apogee alt
475.9 km
Semi-major
6,853.3 km
B*
3.3465e-4
RAAN
108.5957°
Arg perigee
90.8908°
Mean anomaly
269.2215°
Rev number
3,465

§ Raw data

STARLINK-355001 66093U 25236H   26145.16022289  .00009567  00000+0  33465-3 0  99902 66093  53.1603 108.5957 0001069  90.8908 269.2215 15.30204779 34652

JSON: /api/v1/satellites/66093 · /tle

For live sub-satellite position, see the globe view (requires WebGL).

§ Visibility from observer

Set your observer location to see the next 7 days of passes ≥ 10°. The values pass through the URL so the page stays shareable.

No JS? Fill the form by hand. The geolocation button needs JavaScript.